sat.trackr.live / text

‹ back to catalog

TIANQI-34

NORAD 62366 · 2024-245B

PAYLOAD ACTIVE UNKNOWN

§ Identity

Operator
Country
PRC
Launch date
2024-12-19
Launch site
YSLA
Launch vehicle
Mass (kg)
RCS (m²)

External: N2YO · Heavens-Above · Gunter

§ Orbital elements

Epoch: 2026-09-22T09:31:37.147872Z

Period
102.91 min
Inclination
44.9793°
Eccentricity
0.0002657
Mean motion
13.99245012 rev/d
Perigee alt
894.5 km
Apogee alt
898.3 km
Semi-major
7,274.5 km
B*
6.6656e-5
RAAN
249.1402°
Arg perigee
131.6342°
Mean anomaly
228.4718°
Rev number
8,994

§ Raw data

TIANQI-341 62366U 24245B   26265.39695773 -.00000031  00000+0  66656-4 0  99972 62366  44.9793 249.1402 0002657 131.6342 228.4718 13.99245012 89941

JSON: /api/v1/satellites/62366 · /tle

For live sub-satellite position, see the globe view (requires WebGL).

§ Visibility from observer

Set your observer location to see the next 7 days of passes ≥ 10°. The values pass through the URL so the page stays shareable.

No JS? Fill the form by hand. The geolocation button needs JavaScript.